DW5338 Weather Reports


time (UTC)temp
C
wind
direction
speed
KPH
gust
KPH
rain 1hr
cm
rain 24hr
cm
rain mn
cm
humidity
%
barometer
mb
20220812185838 23 112 8.0 20.9 0.00 0.00 0.00 47 1027.7
20220812185335 23 337 1.6 14.5 0.00 0.00 0.00 47 1027.7
20220812184841 22 45 6.4 14.5 0.00 0.00 0.00 48 1027.7
20220812184335 22 112 9.7 19.3 0.00 0.00 0.00 48 1027.7
20220812183838 22 45 12.9 17.7 0.00 0.00 0.00 47 1027.7
20220812183338 22 67 8.0 17.7 0.00 0.00 0.00 47 1027.7
20220812182838 22 22 16.1 20.9 0.00 0.00 0.00 47 1028.0
20220812182341 22 22 4.8 20.9 0.00 0.00 0.00 48 1028.0
20220812181841 22 45 12.9 17.7 0.00 0.00 0.00 48 1028.0
20220812181338 22 90 9.7 16.1 0.00 0.00 0.00 49 1028.0
20220812180838 22 225 4.8 17.7 0.00 0.00 0.00 49 1028.0
20220812180335 22 45 8.0 16.1 0.00 0.00 0.00 49 1028.4
20220812175835 22 0 9.7 17.7 0.00 0.00 0.00 49 1028.1
20220812175338 21 45 9.7 16.1 0.00 0.00 0.00 49 1028.4
20220812174838 21 292 4.8 16.1 0.00 0.00 0.00 50 1028.4
20220812174338 21 337 1.6 14.5 0.00 0.00 0.00 50 1028.4
20220812173841 21 22 9.7 14.5 0.00 0.00 0.00 50 1028.4
20220812173338 21 45 11.3 22.5 0.00 0.00 0.00 50 1028.7
20220812172838 21 180 8.0 14.5 0.00 0.00 0.00 51 1028.7
20220812172338 21 67 9.7 20.9 0.00 0.00 0.00 51 1028.7
20220812171835 21 67 17.7 17.7 0.00 0.00 0.00 51 1028.7
20220812171335 21 45 3.2 19.3 0.00 0.00 0.00 51 1029.1
20220812170835 21 0 8.0 16.1 0.00 0.00 0.00 51 1029.1
20220812170335 20 292 0.0 12.9 0.00 0.00 0.00 52 1029.1
20220812165838 20 67 4.8 12.9 0.00 0.00 0.00 52 1029.1
20220812165335 20 45 9.7 16.1 0.00 0.00 0.00 52 1029.1
20220812164835 20 112 6.4 19.3 0.00 0.00 0.00 52 1029.1
20220812164335 20 112 8.0 16.1 0.00 0.00 0.00 52 1029.5
20220812163838 20 67 8.0 16.1 0.00 0.00 0.00 52 1029.5
20220812163335 20 0 3.2 16.1 0.00 0.00 0.00 52 1029.5
20220812162838 20 22 4.8 14.5 0.00 0.00 0.00 52 1029.5
20220812162338 20 112 9.7 12.9 0.00 0.00 0.00 52 1029.5
20220812161838 20 112 9.7 14.5 0.00 0.00 0.00 53 1029.6
20220812161335 20 90 4.8 14.5 0.00 0.00 0.00 52 1029.6
20220812160838 20 112 6.4 11.3 0.00 0.00 0.00 53 1029.6
20220812160335 19 112 8.0 11.3 0.00 0.00 0.00 53 1029.6
20220812155838 19 67 4.8 11.3 0.00 0.00 0.00 53 1029.6
20220812155335 19 337 4.8 16.1 0.00 0.00 0.00 53 1030.0
20220812154838 19 67 4.8 16.1 0.00 0.00 0.00 54 1030.0
20220812154335 18 112 3.2 8.0 0.00 0.00 0.00 54 1030.0
20220812153835 18 112 1.6 14.5 0.00 0.00 0.00 54 1030.0
20220812153335 18 180 8.0 11.3 0.00 0.00 0.00 54 1030.0
20220812152838 18 112 11.3 16.1 0.00 0.00 0.00 54 1030.1
20220812152338 18 180 3.2 9.7 0.00 0.00 0.00 55 1030.1
20220812151838 18 202 3.2 16.1 0.00 0.00 0.00 55 1030.1
20220812151338 17 135 8.0 12.9 0.00 0.00 0.00 56 1030.1
20220812150835 17 157 9.7 14.5 0.00 0.00 0.00 57 1030.1
20220812150335 17 292 0.0 12.9 0.00 0.00 0.00 57 1030.2
20220812145835 17 157 9.7 11.3 0.00 0.00 0.00 57 1030.2
20220812145338 17 202 1.6 14.5 0.00 0.00 0.00 58 1030.2
20220812144835 16 112 8.0 14.5 0.00 0.00 0.00 58 1030.2
20220812144335 16 135 4.8 11.3 0.00 0.00 0.00 58 1030.3
20220812143838 16 112 4.8 11.3 0.00 0.00 0.00 57 1030.3
20220812143341 16 247 1.6 11.3 0.00 0.00 0.00 57 1030.3
20220812142835 15 315 4.8 8.0 0.00 0.00 0.00 57 1030.3
20220812142338 15 45 3.2 8.0 0.00 0.00 0.00 57 1030.4
20220812141838 15 112 1.6 6.4 0.00 0.00 0.00 57 1030.4
20220812141341 15 157 4.8 4.8 0.00 0.00 0.00 57 1030.1
20220812140835 15 225 1.6 4.8 0.00 0.00 0.00 57 1030.1
20220812140335 15 225 3.2 6.4 0.00 0.00 0.00 58 1030.2
20220812135841 15 202 4.8 6.4 0.00 0.00 0.00 58 1030.2
20220812135335 15 202 4.8 4.8 0.00 0.00 0.00 58 1030.2
20220812134841 15 180 1.6 4.8 0.00 0.00 0.00 58 1030.2
20220812134335 14 225 4.8 4.8 0.00 0.00 0.00 57 1030.3
20220812133841 14 202 3.2 4.8 0.00 0.00 0.00 57 1030.3
20220812133338 14 202 3.2 3.2 0.00 0.00 0.00 57 1030.4
20220812132835 14 247 1.6 4.8 0.00 0.00 0.00 57 1030.1
20220812132335 14 202 1.6 4.8 0.00 0.00 0.00 57 1030.1
20220812131838 14 270 3.2 4.8 0.00 0.00 0.00 56 1030.1
20220812131341 14 270 1.6 4.8 0.00 0.00 0.00 56 1030.2
20220812130835 14 247 4.8 8.0 0.00 0.00 0.00 56 1030.2
20220812130341 14 247 4.8 12.9 0.00 0.00 0.00 56 1030.2
20220812125835 14 202 4.8 8.0 0.00 0.00 0.00 56 1030.0
20220812125338 14 180 6.4 8.0 0.00 0.00 0.00 55 1030.0
20220812124835 14 202 4.8 11.3 0.00 0.00 0.00 55 1030.0
20220812124338 14 247 6.4 12.9 0.00 0.00 0.00 55 1030.1
20220812123835 14 202 8.0 9.7 0.00 0.00 0.00 55 1030.1
20220812123338 14 202 4.8 12.9 0.00 0.00 0.00 54 1030.1
20220812122838 15 202 14.5 14.5 0.00 0.00 0.00 54 1029.9
20220812122335 15 292 4.8 12.9 0.00 0.00 0.00 53 1029.9
20220812121838 15 247 11.3 14.5 0.00 0.00 0.00 53 1029.9
20220812121338 15 225 11.3 14.5 0.00 0.00 0.00 53 1030.0
20220812120835 15 202 8.0 16.1 0.00 0.00 0.00 53 1029.7
20220812120335 15 225 16.1 16.1 0.00 0.00 0.00 53 1029.7
20220812115841 15 202 11.3 14.5 0.00 0.00 0.00 53 1029.7
20220812115335 15 225 9.7 16.1 0.00 0.00 0.00 53 1029.8
20220812114838 15 225 11.3 16.1 0.00 0.00 0.00 52 1029.8
20220812114338 15 247 9.7 14.5 0.00 0.00 0.00 52 1029.8
20220812113835 15 247 9.7 14.5 0.00 0.00 0.00 52 1029.8
20220812113335 15 247 4.8 14.5 0.00 0.00 0.00 52 1029.5
20220812112838 15 247 9.7 12.9 0.00 0.00 0.00 52 1029.6
20220812112335 15 202 9.7 17.7 0.00 0.00 0.00 52 1029.6
20220812111835 15 225 11.3 14.5 0.00 0.00 0.00 52 1029.6
20220812111335 15 225 12.9 17.7 0.00 0.00 0.00 51 1029.7
20220812110835 15 225 11.3 14.5 0.00 0.00 0.00 51 1029.7
20220812110338 15 225 9.7 14.5 0.00 0.00 0.00 51 1029.7
20220812105838 15 225 8.0 12.9 0.00 0.00 0.00 51 1029.7
20220812105335 15 247 9.7 16.1 0.00 0.00 0.00 51 1029.7
20220812104835 15 225 12.9 12.9 0.00 0.00 0.00 51 1029.8
20220812104335 15 225 9.7 14.5 0.00 0.00 0.00 51 1029.4
20220812103838 15 225 9.7 12.9 0.00 0.00 0.00 51 1029.5
20220812103335 15 225 9.7 14.5 0.00 0.00 0.00 51 1029.5
20220812102835 15 180 9.7 16.1 0.00 0.00 0.00 51 1029.9
20220812102338 15 225 8.0 12.9 0.00 0.00 0.00 51 1029.6
20220812101835 15 225 9.7 12.9 0.00 0.00 0.00 51 1029.6
20220812101335 15 225 9.7 16.1 0.00 0.00 0.00 51 1029.6
20220812100835 15 225 14.5 16.1 0.00 0.00 0.00 50 1029.6
20220812100338 16 225 8.0 12.9 0.00 0.00 0.00 50 1029.7
20220812095835 15 225 9.7 14.5 0.00 0.00 0.00 50 1029.7
20220812095338 15 247 8.0 16.1 0.00 0.00 0.00 50 1029.7
20220812094835 15 270 8.0 12.9 0.00 0.00 0.00 50 1029.7
20220812094335 15 247 9.7 14.5 0.00 0.00 0.00 51 1029.7
20220812093838 15 247 4.8 12.9 0.00 0.00 0.00 51 1029.8
20220812093341 15 247 9.7 12.9 0.00 0.00 0.00 51 1029.8
20220812092835 15 247 8.0 12.9 0.00 0.00 0.00 51 1029.8
20220812092335 15 202 11.3 12.9 0.00 0.00 0.00 51 1029.5
20220812091841 15 247 9.7 16.1 0.00 0.00 0.00 51 1029.5
20220812091335 15 225 9.7 16.1 0.00 0.00 0.00 52 1029.9
20220812090835 15 247 8.0 12.9 0.00 0.00 0.00 52 1029.5
20220812090341 15 202 8.0 9.7 0.00 0.00 0.00 52 1029.6
20220812085835 15 225 8.0 12.9 0.00 0.00 0.00 52 1029.6
20220812085335 15 247 12.9 16.1 0.00 0.00 0.00 52 1029.6
20220812084838 15 225 11.3 16.1 0.00 0.00 0.00 51 1029.6
20220812084338 15 202 8.0 12.9 0.00 0.00 0.00 52 1029.6
20220812083841 15 225 9.7 12.9 0.00 0.00 0.00 52 1029.6
20220812083338 15 270 8.0 17.7 0.00 0.00 0.00 52 1029.7
20220812082835 15 247 19.3 19.3 0.00 0.00 0.00 53 1029.7
20220812082338 15 225 12.9 16.1 0.00 0.00 0.00 53 1029.3
20220812081838 15 225 9.7 16.1 0.00 0.00 0.00 53 1029.4
20220812081338 15 202 8.0 16.1 0.00 0.00 0.00 53 1029.4
20220812080838 15 247 9.7 16.1 0.00 0.00 0.00 53 1029.4
20220812080335 15 225 9.7 12.9 0.00 0.00 0.00 53 1029.4
20220812075838 15 247 9.7 16.1 0.00 0.00 0.00 53 1029.4
20220812075335 15 202 16.1 16.1 0.00 0.00 0.00 52 1029.4
20220812074835 15 202 12.9 16.1 0.00 0.00 0.00 52 1029.4
20220812074335 16 202 11.3 11.3 0.00 0.00 0.00 51 1029.4
20220812073835 16 225 9.7 11.3 0.00 0.00 0.00 51 1029.4
20220812073335 16 202 8.0 9.7 0.00 0.00 0.00 50 1029.4
20220812072835 16 292 9.7 12.9 0.00 0.00 0.00 50 1029.4
20220812072338 16 202 8.0 12.9 0.00 0.00 0.00 49 1029.4
20220812071835 16 292 12.9 17.7 0.00 0.00 0.00 49 1029.5
20220812071338 16 225 4.8 12.9 0.00 0.00 0.00 49 1029.5
20220812070835 16 247 9.7 16.1 0.00 0.00 0.00 49 1029.5
20220812070335 16 247 8.0 14.5 0.00 0.00 0.00 49 1029.5
20220812065838 16 202 8.0 14.5 0.00 0.00 0.00 49 1029.5
20220812065338 16 225 4.8 12.9 0.00 0.00 0.00 49 1029.5
20220812064841 16 247 8.0 14.5 0.00 0.00 0.00 49 1029.5
20220812064335 17 247 8.0 12.9 0.00 0.00 0.00 49 1029.5
20220812063835 17 202 6.4 12.9 0.00 0.00 0.00 49 1029.5
20220812063335 17 247 8.0 12.9 0.00 0.00 0.00 49 1029.2
20220812062838 17 247 8.0 14.5 0.00 0.00 0.00 49 1029.6
20220812062335 17 247 11.3 16.1 0.00 0.00 0.00 49 1029.6
20220812061838 17 225 9.7 12.9 0.00 0.00 0.00 49 1029.6
20220812061335 17 247 8.0 14.5 0.00 0.00 0.00 48 1029.6
20220812060838 17 225 9.7 17.7 0.00 0.00 0.00 48 1029.6
20220812060335 17 202 9.7 11.3 0.00 0.00 0.00 48 1029.6
20220812055838 17 225 9.7 11.3 0.00 0.00 0.00 48 1029.6
20220812055335 17 225 9.7 14.5 0.00 0.00 0.00 48 1029.6
20220812054841 17 247 9.7 14.5 0.00 0.00 0.00 48 1029.2
20220812054335 17 202 11.3 12.9 0.00 0.00 0.00 48 1029.2
20220812053835 17 247 9.7 12.9 0.00 0.00 0.00 48 1029.2
20220812053338 17 247 12.9 12.9 0.00 0.00 0.00 48 1029.2
20220812052838 17 247 12.9 12.9 0.00 0.00 0.00 48 1029.2
20220812052335 17 225 9.7 16.1 0.00 0.00 0.00 48 1029.2
20220812051835 17 247 8.0 14.5 0.00 0.00 0.00 48 1029.2
20220812051338 17 247 8.0 16.1 0.00 0.00 0.00 48 1029.2
20220812050835 17 247 12.9 17.7 0.00 0.00 0.00 47 1029.2
20220812050335 17 202 4.8 17.7 0.00 0.00 0.00 48 1029.2
20220812045838 17 180 12.9 16.1 0.00 0.00 0.00 48 1029.2
20220812045341 17 202 9.7 16.1 0.00 0.00 0.00 48 1029.2
20220812044835 18 247 8.0 16.1 0.00 0.00 0.00 48 1029.2
20220812044338 18 247 8.0 12.9 0.00 0.00 0.00 48 1029.1
20220812043838 18 225 9.7 16.1 0.00 0.00 0.00 48 1029.4
20220812043341 18 247 8.0 12.9 0.00 0.00 0.00 48 1029.1
20220812042839 18 247 8.0 14.5 0.00 0.00 0.00 49 1029.1
20220812042335 17 247 9.7 14.5 0.00 0.00 0.00 49 1029.1
20220812041841 17 225 9.7 12.9 0.00 0.00 0.00 49 1029.1
20220812041338 17 225 8.0 12.9 0.00 0.00 0.00 49 1029.4
20220812040838 17 180 12.9 12.9 0.00 0.00 0.00 50 1029.1
20220812040338 18 247 4.8 12.9 0.00 0.00 0.00 50 1029.0
20220812035838 18 225 11.3 11.3 0.00 0.00 0.00 51 1029.0
20220812035338 18 225 4.8 12.9 0.00 0.00 0.00 51 1029.0
20220812034835 18 180 9.7 11.3 0.00 0.00 0.00 51 1028.7
20220812034335 18 180 9.7 17.7 0.00 0.00 0.00 51 1028.7
20220812033835 18 202 6.4 19.3 0.00 0.00 0.00 51 1028.6
20220812033338 18 247 17.7 17.7 0.00 0.00 0.00 52 1028.6
20220812032835 18 225 9.7 14.5 0.00 0.00 0.00 52 1028.6
20220812032335 18 225 12.9 16.1 0.00 0.00 0.00 53 1028.6
20220812031841 18 247 8.0 14.5 0.00 0.00 0.00 53 1028.2
20220812031335 18 247 9.7 12.9 0.00 0.00 0.00 53 1028.5
20220812030838 18 225 6.4 12.9 0.00 0.00 0.00 53 1028.2
20220812030335 18 225 8.0 12.9 0.00 0.00 0.00 52 1028.2
20220812025835 19 225 8.0 12.9 0.00 0.00 0.00 52 1028.1
20220812025335 19 202 8.0 12.9 0.00 0.00 0.00 52 1028.1
20220812024841 20 247 9.7 12.9 0.00 0.00 0.00 52 1028.1
20220812024335 20 202 9.7 12.9 0.00 0.00 0.00 51 1027.8
20220812023835 20 247 9.7 11.3 0.00 0.00 0.00 50 1027.7
20220812023335 20 247 8.0 12.9 0.00 0.00 0.00 50 1027.7
20220812022835 21 247 8.0 9.7 0.00 0.00 0.00 49 1027.7
20220812022341 21 225 8.0 12.9 0.00 0.00 0.00 48 1027.3
20220812021838 21 202 9.7 12.9 0.00 0.00 0.00 47 1027.3
20220812021335 21 247 6.4 11.3 0.00 0.00 0.00 46 1027.3
20220812020841 22 202 4.8 8.0 0.00 0.00 0.00 44 1027.2
20220812020335 22 247 1.6 6.4 0.00 0.00 0.00 43 1027.2
20220812015840 22 247 4.8 8.0 0.00 0.00 0.00 42 1027.2
20220812015335 22 270 4.8 8.0 0.00 0.00 0.00 42 1027.1
20220812014835 22 270 6.4 8.0 0.00 0.00 0.00 42 1027.1
20220812014338 22 270 3.2 4.8 0.00 0.00 0.00 42 1027.1
20220812013838 22 270 4.8 4.8 0.00 0.00 0.00 42 1027.0
20220812013338 22 225 4.8 4.8 0.00 0.00 0.00 42 1027.0
20220812012838 22 247 1.6 1.6 0.00 0.00 0.00 41 1027.0
20220812012335 22 292 3.2 4.8 0.00 0.00 0.00 40 1026.9
20220812011838 22 292 4.8 4.8 0.00 0.00 0.00 41 1026.9
20220812011335 22 0 4.8 6.4 0.00 0.00 0.00 41 1026.9
20220812010835 23 315 4.8 6.4 0.00 0.00 0.00 41 1026.8
20220812010335 23 337 4.8 6.4 0.00 0.00 0.00 41 1026.8
20220812005835 23 0 4.8 4.8 0.00 0.00 0.00 41 1026.8
20220812005338 23 337 4.8 4.8 0.00 0.00 0.00 41 1026.7
20220812004838 23 292 4.8 8.0 0.00 0.00 0.00 41 1026.7
20220812004335 23 315 4.8 4.8 0.00 0.00 0.00 42 1026.7
20220812003838 23 337 4.8 6.4 0.00 0.00 0.00 42 1026.6
20220812003338 23 22 1.6 6.4 0.00 0.00 0.00 42 1026.6
20220812002835 23 315 4.8 9.7 0.00 0.00 0.00 41 1026.6
20220812002335 23 337 8.0 9.7 0.00 0.00 0.00 41 1026.5
20220812001835 23 337 9.7 12.9 0.00 0.00 0.00 41 1026.8
20220812001335 23 292 4.8 9.7 0.00 0.00 0.00 41 1026.8
20220812000838 23 337 4.8 12.9 0.00 0.00 0.00 41 1026.4
20220812000338 23 247 9.7 12.9 0.00 0.00 0.00 41 1026.7
20220811235838 23 292 8.0 16.1 0.00 0.00 0.00 41 1026.7
20220811235338 23 337 9.7 12.9 0.00 0.00 0.00 41 1026.6
20220811234838 23 0 11.3 11.3 0.00 0.00 0.00 42 1026.6
20220811234335 23 22 4.8 8.0 0.00 0.00 0.00 42 1026.6
20220811233838 23 22 4.8 8.0 0.00 0.00 0.00 42 1026.5
20220811233341 23 337 6.4 9.7 0.00 0.00 0.00 42 1026.5
20220811232838 23 45 8.0 11.3 0.00 0.00 0.00 42 1026.5
20220811232335 23 22 4.8 8.0 0.00 0.00 0.00 43 1026.7
20220811231835 23 22 0.0 6.4 0.00 0.00 0.00 43 1026.7
20220811231335 23 0 3.2 9.7 0.00 0.00 0.00 42 1026.7
20220811230835 23 337 4.8 9.7 0.00 0.00 0.00 41 1026.7
20220811230341 23 45 4.8 12.9 0.00 0.00 0.00 41 1026.6
20220811225835 23 202 1.6 9.7 0.00 0.00 0.00 41 1026.6
20220811225335 23 45 4.8 11.3 0.00 0.00 0.00 41 1026.6
20220811224838 23 22 3.2 16.1 0.00 0.00 0.00 40 1026.5
20220811224338 23 0 8.0 16.1 0.00 0.00 0.00 40 1026.5
20220811223835 23 22 9.7 14.5 0.00 0.00 0.00 40 1026.5
20220811223338 23 135 6.4 14.5 0.00 0.00 0.00 40 1026.5
20220811222838 23 22 8.0 16.1 0.00 0.00 0.00 40 1026.4
20220811222338 23 67 9.7 14.5 0.00 0.00 0.00 39 1026.4
20220811221835 23 67 9.7 17.7 0.00 0.00 0.00 39 1026.4
20220811221335 24 0 8.0 17.7 0.00 0.00 0.00 38 1026.4
20220811220841 24 45 8.0 20.9 0.00 0.00 0.00 38 1026.3
20220811220335 25 45 16.1 19.3 0.00 0.00 0.00 37 1026.3
20220811215838 25 337 4.8 20.9 0.00 0.00 0.00 37 1026.6
20220811215335 26 22 9.7 16.1 0.00 0.00 0.00 37 1026.6
20220811214838 26 45 12.9 19.3 0.00 0.00 0.00 37 1026.5
20220811214335 26 90 12.9 17.7 0.00 0.00 0.00 38 1026.5
20220811213835 26 0 3.2 19.3 0.00 0.00 0.00 37 1026.5
20220811213338 26 45 16.1 20.9 0.00 0.00 0.00 37 1026.5
20220811212835 26 67 12.9 22.5 0.00 0.00 0.00 36 1026.4
20220811212335 26 45 12.9 22.5 0.00 0.00 0.00 36 1026.4
20220811211835 26 67 11.3 20.9 0.00 0.00 0.00 36 1026.7
20220811211338 26 67 9.7 20.9 0.00 0.00 0.00 35 1026.7
20220811210838 26 45 4.8 20.9 0.00 0.00 0.00 36 1026.7
20220811210335 26 67 8.0 20.9 0.00 0.00 0.00 36 1026.7
20220811205835 26 0 9.7 22.5 0.00 0.00 0.00 36 1026.6
20220811205341 26 45 16.1 20.9 0.00 0.00 0.00 36 1026.6
20220811204838 26 67 4.8 20.9 0.00 0.00 0.00 36 1026.6
20220811204338 26 45 12.9 20.9 0.00 0.00 0.00 36 1026.6
20220811203835 26 247 1.6 22.5 0.00 0.00 0.00 36 1026.9
20220811203338 25 0 6.4 20.9 0.00 0.00 0.00 36 1026.8
20220811202838 26 45 12.9 22.5 0.00 0.00 0.00 36 1026.8
20220811202338 26 45 14.5 24.1 0.00 0.00 0.00 37 1026.8
20220811201838 26 112 6.4 22.5 0.00 0.00 0.00 37 1027.1
20220811201341 26 22 24.1 24.1 0.00 0.00 0.00 37 1027.1
20220811200841 26 292 1.6 20.9 0.00 0.00 0.00 37 1027.1
20220811200335 26 292 8.0 20.9 0.00 0.00 0.00 37 1027.1
20220811195835 26 90 9.7 17.7 0.00 0.00 0.00 38 1027.4
20220811195338 25 22 4.8 20.9 0.00 0.00 0.00 39 1027.4
20220811194838 25 67 9.7 20.9 0.00 0.00 0.00 39 1027.3
20220811194338 25 22 12.9 19.3 0.00 0.00 0.00 39 1027.3
20220811193835 25 90 16.1 17.7 0.00 0.00 0.00 39 1027.3
20220811193338 25 22 16.1 22.5 0.00 0.00 0.00 39 1027.3
20220811192838 25 225 1.6 24.1 0.00 0.00 0.00 39 1027.3
20220811192338 25 45 6.4 22.5 0.00 0.00 0.00 39 1027.3
20220811191838 25 337 3.2 24.1 0.00 0.00 0.00 39 1027.3
20220811191335 25 157 8.0 22.5 0.00 0.00 0.00 38 1027.6
20220811190835 25 112 6.4 22.5 0.00 0.00 0.00 38 1027.3
20220811190335 25 45 9.7 25.7 0.00 0.00 0.00 38 1027.2